AirNav   Pilot Hours Calculator
 
 343 users online  

91TS Songbird Ranch Airport
Rosharon, Texas, USA

GOING TO ROSHARON?


FAA INFORMATION EFFECTIVE 25 FEBRUARY 2021

Location

FAA Identifier: 91TS
Lat/Long: 29-22-02.6700N 095-20-26.0000W
29-22.044500N 095-20.433333W
29.3674083,-95.3405556
(estimated)
Elevation: 34 ft. / 10 m (estimated)
Variation: 06E (1985)
From city: 6 miles E of ROSHARON, TX
Time zone: UTC -6 (UTC -5 during Daylight Saving Time)
Zip code: 77583

Airport Operations

Airport use: Private use. Permission required prior to landing
Activation date: 06/1987
Control tower: no
ARTCC: HOUSTON CENTER
FSS: MONTGOMERY COUNTY FLIGHT SERVICE STATION
Attendance: UNATNDD
Wind indicator: yes
Segmented circle: no

Airport Communications

WX ASOS at LVJ (11 nm NE): 118.525 (281-992-1853)
WX AWOS-3 at AXH (11 nm NW): 123.625 (281-431-6572)
WX ASOS at LBX (17 nm S): 119.925 (979-849-3319)
WX ASOS at HOU (17 nm N): PHONE 713-847-1462
WX AWOS-3 at EFD (17 nm NE): 135.575 (713-847-4430)

Nearby radio navigation aids

VOR radial/distance  VOR name  Freq  Var
VUHr277/25.4SCHOLES VOR/DME113.0006E
MHFr244/32.8TRINITY VOR/DME113.6007E
IAHr175/35.4HUMBLE VORTAC116.6005E

Airport Services

Runway Information

Runway 15/33

Dimensions: 3200 x 30 ft. / 975 x 9 m
Surface: concrete
RUNWAY 15  RUNWAY 33
Traffic pattern: leftright
Obstructions: 50 ft. trees, 300 ft. from runway40 ft. pline, 150 ft. from runway

Airport Ownership and Management from official FAA records

Ownership: Privately-owned
Owner: SONGBIRD RANCH INC
16 SONGBIRD DRIVE
ROSHARON, TX 77583
Phone 281-331-0195
Manager: NEILL NORTHINGTON
16 SONGBIRD DRIVE
ROSHARON, TX 77583
Phone 281-585-5199
OTHER CONTACT RICK CARR 281-331-0195

Airport Operational Statistics

Aircraft based on the field: 18
Single engine airplanes: 16
Multi engine airplanes: 2
    

Additional Remarks

FOR CD CTC HOUSTON ARTCC AT 281-230-5622.

Instrument Procedures

There are no published instrument procedures at 91TS.

Some nearby airports with instrument procedures:

KLVJ - Pearland Regional Airport (11 nm NE)
KAXH - Houston Southwest Airport (11 nm NW)
KLBX - Texas Gulf Coast Regional Airport (17 nm S)
KHOU - William P Hobby Airport (17 nm N)
KEFD - Ellington Airport (17 nm NE)
 
Loc | Ops | Rwys | IFR | FBO | Links
Com | Nav | Svcs | Stats | Notes
Area around 91TS (Songbird Ranch Airport)
 
Road maps at: MapQuest Bing Google
 
Aerial photo
WARNING: Photo may not be current or correct
Aerial photo of 91TS (Songbird Ranch Airport)
Photo taken 11-May-2009

Do you have a better or more recent aerial photo of Songbird Ranch Airport that you would like to share? If so, please send us your photo.

 
Sectional chart

 
Airport distance calculator
Flying to Songbird Ranch Airport? Find the distance to fly.

From to 91TS

Sunrise and sunset
Times for 03-Mar-2021
 Local
(UTC-6)
 Zulu
(UTC)
Morning civil twilight06:2212:22
Sunrise06:4612:46
Sunset18:2100:21
Evening civil twilight18:4500:45

Current date and time
Zulu (UTC)  03-Mar-2021 09:59:48
Local (UTC-6)  03-Mar-2021 03:59:48
 
METAR
KLVJ 
10nm NE 
030853Z AUTO 00000KT 10SM CLR 07/04 A3017 RMK AO2 SLP217 T00670039 50000
KAXH 
11nm NW 
030935Z AUTO 00000KT 10SM CLR 06/06 A3018 RMK AO2 T00630056
KHOU 
16nm N 
030853Z 08004KT 10SM CLR 09/04 A3016 RMK AO2 SLP217 T00940044 50001
KLBX 
16nm SW 
030853Z AUTO 07004KT 9SM CLR 07/04 A3015 RMK AO2 SLP210 T00670044 58005
KEFD 
17nm NE 
030850Z 03004KT 10SM CLR 07/05 A3016
TAF
KHOU 
16nm N 
030530Z 0306/0406 05005KT P6SM SKC FM031500 VRB05KT P6SM SCT250
KLBX 
16nm SW 
021743Z 0218/0318 03011G20KT P6SM BKN016 BKN040 OVC110 TEMPO 0219/0220 SCT029 SCT200 FM022000 02012KT P6SM SKC FM030100 VRB02KT P6SM SKC FM031600 07008KT P6SM SKC
KEFD 
17nm NE 
030400Z 0304/0410 VRB06KT 9999 SKC QNH3015INS TX16/0322Z TN07/0313Z
NOTAMs
Click for the latest NOTAMs
NOTAMs are issued by the DoD/FAA and will open in a separate window not controlled by AirNav.

 

 
 

Would you like to see your business listed on this page?

 If your business provides an interesting product or service to pilots, flight crews, aircraft, or users of the Songbird Ranch Airport, you should consider listing it here.  To start the listing process, click on the button below
 
Add a business
 

Other Pages about Songbird Ranch Airport

Update a link
 
Copyright © AirNav, LLC. All rights reserved. Privacy Policy  Contact